Location: Woodstock
(43.1330°N, 80.7500°W)
Time: 20:22:25
(UTC-04:00)

Daily predictions for brighter satellites

Satellite Brightness Start Highest point End
(mag) Time Altitude Azimuth Time Altitude Azimuth Time Altitude Azimuth
Cosmos 1821 Rocket 4.3 20:00:55 10° SSE 20:06:58 47° E 20:13:00 10° NNE
Cosmos 1844 Rocket 2.8 20:10:15 10° S 20:15:46 58° ESE 20:21:18 10° NNE
FengYun 1-2 T 4.3 20:10:34 10° SSE 20:16:03 67° ENE 20:21:39 10° N
Resurs 01 Rocket 1.8 20:14:00 10° SSE 20:18:15 50° ENE 20:22:33 10° N
Cosmos 1953 4.2 20:19:44 11° ESE 20:21:21 13° E 20:23:10 10° ENE
Cosmos 2278 Rocket 3.0 20:17:50 10° SSE 20:22:32 28° ESE 20:27:17 10° NE
BREEZE-M DEB (TANK) 3.7 20:20:15 10° SSW 20:22:45 30° SE 20:27:56 10° ENE
Cosmos 1833 Rocket 4.4 20:20:04 10° N 20:23:30 16° NE 20:26:45 11° E
Cosmos 1812 Rocket 3.8 20:19:42 10° SSE 20:23:56 46° E 20:28:09 10° NNE
CZ-2C R/B 2.2 20:22:45 10° NNE 20:24:27 21° E 20:25:15 16° ESE
FREGAT/IRIS 3.9 20:24:45 10° S 20:27:42 44° W 20:30:41 10° NNW
Cosmos 1000 Rocket 4.5 20:23:04 10° N 20:29:16 86° E 20:35:28 10° S
Meteor 1-24 Rocket 3.7 20:25:57 10° N 20:31:20 61° ENE 20:36:52 10° SSE
Cosmos 1378 3.1 20:27:44 10° N 20:31:30 68° E 20:35:14 10° SSE
Meteor 2-5 Rocket 4.0 20:27:50 10° NNW 20:33:33 78° W 20:39:20 10° S
H-2A R/B 2.7 20:30:42 10° SSE 20:34:33 74° ENE 20:38:29 10° N
Cosmos 2150 Rocket 3.9 20:29:55 10° S 20:35:00 66° ESE 20:40:07 10° NNE
Cosmos 2123 Rocket 4.1 20:29:39 10° N 20:35:52 56° ENE 20:42:01 10° SSE
Spot 2 Rocket 3.5 20:32:02 10° SSE 20:37:07 76° ENE 20:42:14 10° N
CZ-3 Stage 3 4.5 19:43:56 10° WSW 20:37:45 50° S 20:45:16 15° ESE
FENGYUN 3A 3.9 20:32:39 10° S 20:38:03 75° WSW 20:43:29 10° NNW
Cosmos 1707 3.4 20:34:53 10° NNW 20:38:44 59° W 20:42:34 10° S
SAR-Lupe-4 4.0 20:35:51 11° SE 20:39:04 39° ENE 20:42:27 10° N
Lacrosse 5 rocket 3.6 20:39:07 10° NNW 20:41:03 13° NNE 20:42:57 10° NE
USA 215 3.5 20:36:09 10° ENE 20:42:23 45° SE 20:48:34 10° SSW
RESURS DK-1 2.6 20:39:47 10° NNW 20:43:49 48° ENE 20:46:34 18° SE
Cosmos 2082 Rocket 3.3 20:46:09 10° N 20:50:56 27° NE 20:53:24 20° E
Cosmos 1898 Rocket 3.8 20:45:40 10° SSW 20:50:58 71° WNW 20:56:16 10° NNE
Cosmos 1766 3.1 20:47:09 10° S 20:50:59 69° E 20:54:52 10° NNE
Envisat 3.4 20:51:33 17° SE 20:55:00 41° ENE 20:59:45 10° N
COSMOS 2406 4.1 20:49:33 10° NW 20:55:07 51° WSW 21:00:36 10° S
Cosmos 990 Rocket 3.9 20:50:00 10° SSW 20:55:14 76° ESE 21:00:30 10° NNE
SAR-Lupe-1 4.1 20:56:01 20° SSE 20:58:21 59° ENE 21:01:54 10° N
Cosmos 1125 Rocket 4.3 20:55:15 10° SSE 20:59:37 28° E 21:04:01 10° NE
BREEZE-M DEB (TANK) 3.7 21:04:20 10° NW 21:06:15 22° N 21:06:50 20° NNE
Cosmos 1544 3.2 21:04:08 19° SSE 21:06:30 49° E 21:10:03 10° NNE
Meteor 1-4 Rocket 3.8 21:08:19 24° NE 21:08:19 24° NE 21:10:06 10° NNE
Helios 1A 2.9 21:04:21 14° SSE 21:07:56 84° ENE 21:12:08 10° NNW
Resurs 1-3 4.3 21:04:13 10° S 21:08:30 55° W 21:12:50 10° NNW
Geosat 4.2 21:03:58 10° NNE 21:09:00 76° WNW 21:14:00 10° SW
Helios 1B rocket 2.3 21:05:24 10° NNE 21:09:33 70° ESE 21:13:39 10° S
Cosmos 1844 4.1 21:07:12 10° SSW 21:12:55 68° WNW 21:18:44 10° NNE
Cosmos 1818 4.0 21:08:43 10° NNW 21:13:59 47° NE 21:15:57 33° E
USA 267 4.0 21:11:56 22° E 21:15:41 41° NNE 21:21:44 10° NW
Cosmos 1447 Rocket 4.4 21:09:55 10° N 21:16:02 63° E 21:20:33 19° SSE
CZ-3B DEB 2.8 21:05:23 10° SW 21:16:27 83° NW 21:20:48 14° NE
SL-27 R/B 3.3 21:18:44 10° NNW 21:22:11 50° WSW 21:24:08 23° S
Lacrosse 4 Rocket 2.8 21:18:30 10° SW 21:22:17 37° NW 21:26:06 10° NNE
COSMOS 2487 3.9 21:19:11 10° N 21:21:24 25° NE 21:21:24 25° NE
Meteor 1-29 2.8 21:19:47 10° NNE 21:23:15 85° ESE 21:25:08 26° S
Cosmos 2344 3.7 21:15:46 10° SW 21:23:26 83° NW 21:32:13 10° NE
ERS-1 Rocket 3.4 21:23:35 39° E 21:24:31 43° ENE 21:29:17 10° N
ARGOS 4.4 21:25:37 24° ENE 21:25:37 24° ENE 21:29:42 10° NNE
Cosmos 1937 Rocket 4.5 21:20:31 10° SW 21:25:35 49° WNW 21:30:44 10° N
Cosmos 1459 Rocket 4.3 21:24:01 31° SE 21:26:12 42° E 21:31:59 10° NNE
Tiangong 1 2.0 21:23:34 10° W 21:25:53 38° SW 21:25:53 38° SW
Cosmos 2173 Rocket 4.3 21:25:17 34° SE 21:27:01 41° E 21:32:48 10° NNE
Cosmos 1805 3.2 21:25:27 10° S 21:29:20 81° W 21:33:16 10° N
Cosmos 2098 Rocket 4.3 21:23:57 10° S 21:30:52 78° E 21:38:30 10° N
USA 186 3.4 21:31:19 23° W 21:31:19 23° W 21:33:14 10° NW
Cosmos 1269 Rocket 4.1 21:27:15 10° NNW 21:32:28 57° ENE 21:33:32 47° ESE
CZ-4B DEB 3.2 21:33:14 54° WSW 21:33:24 55° W 21:36:28 10° NNW
Cosmos 1340 Rocket 4.1 21:29:54 10° N 21:32:19 27° NE 21:32:19 27° NE
Okean 3 Rocket 4.1 21:30:08 10° NNW 21:34:27 58° W 21:37:36 18° S
Cosmos 1674 3.2 21:31:20 10° N 21:34:15 45° NNE 21:34:15 45° NNE
Cosmos 1408 Rocket 3.5 21:31:26 10° N 21:35:53 65° E 21:36:11 63° ESE
Abrixas 4.1 21:36:09 10° WNW 21:37:55 30° NW 21:37:55 30° NW
Cosmos 468 4.5 21:37:37 10° NNW 21:42:52 83° WSW 21:44:36 44° S
Lacrosse 5 1.8 21:40:30 10° SW 21:45:34 83° NW 21:47:58 32° NE
Cosmos 1758 3.7 21:43:44 22° SSW 21:46:11 61° W 21:50:09 10° N
SPOT 5 3.7 21:49:18 40° ENE 21:49:18 40° ENE 21:53:52 10° N
Cosmos 1939 Rocket 3.3 21:50:45 55° SW 21:51:20 62° W 21:55:28 10° NNW
Resurs 01 Rocket 4.5 21:52:19 10° SW 21:55:01 16° W 21:57:44 10° NW
GP-B 3.7 21:53:44 28° SSW 21:55:48 54° W 22:00:11 10° N
Cosmos 1953 3.2 21:55:18 26° SW 21:57:19 49° W 22:01:18 10° N
Cosmos 2016 Rocket 4.1 21:58:20 51° ENE 21:58:20 51° ENE 22:03:50 10° NNE
NOAA 11 4.2 22:06:22 63° NE 22:06:22 63° NE 22:11:29 10° N
Cosmos 2278 Rocket 3.2 22:00:58 10° SW 22:06:22 45° WNW 22:11:50 10° NNE
YAOGAN 6 4.3 22:09:31 32° NNW 22:09:31 32° NNW 22:11:39 10° NNW
Cosmos 2100 Rocket 3.9 22:04:50 31° S 22:08:06 87° W 22:14:31 10° N
Cosmos 1833 Rocket 2.5 22:02:38 10° NNW 22:08:17 87° ENE 22:08:29 84° SE
H-2A R/B 3.3 22:17:08 30° NNE 22:17:08 30° NNE 22:20:23 10° N
Cosmos 2297 3.8 22:11:37 10° SSW 22:17:19 77° WNW 22:23:05 10° NNE
H-2A R/B (2) 4.4 22:14:24 10° SW 22:15:06 13° SSW 22:15:06 13° SSW
Lacrosse 5 rocket 3.4 22:17:41 10° NW 22:19:28 22° NNW 22:19:28 22° NNW
Meteor 2-17 Rocket 4.4 22:24:18 70° NE 22:24:18 70° NE 22:29:47 10° N
Cosmos 1802 Rocket 3.9 22:23:38 72° SSW 22:24:16 83° W 22:30:28 10° N
USA 215 3.7 22:19:05 10° NE 22:25:30 59° NNW 22:31:53 10° WSW
Terra 4.0 22:29:53 16° NNE 22:29:53 16° NNE 22:31:04 10° N
MetOp-B 4.3 22:27:55 68° NW 22:27:55 68° NW 22:32:36 10° NNW
Cosmos 2061 Rocket 4.2 22:28:29 45° SSW 22:30:29 70° W 22:36:55 10° N
Timation 2 Rocket 4.1 22:28:16 10° NNW 22:34:35 67° WSW 22:34:37 67° WSW
Cosmos 2082 Rocket 2.8 22:29:48 10° NW 22:35:17 51° WSW 22:35:17 51° WSW
USA 267 3.4 22:59:17 67° WNW 22:59:17 67° WNW 23:04:58 10° NW
BREEZE-M DEB (TANK) 4.2 22:56:01 10° WSW 23:00:57 90° SSE 23:23:08 10° ENE
ARGOS 4.4 23:07:07 37° NW 23:07:07 37° NW 23:10:40 10° NNW
Lacrosse 5 4.2 23:25:04 10° WNW 23:27:17 20° NW 23:27:17 20° NW
CZ-3B DEB 4.2 23:24:53 10° WNW 23:28:42 20° NW 23:28:42 20° NW
H-2A R/B 4.5 23:57:46 19° NW 23:57:46 19° NW 23:59:35 10° NW
